Tracking 19176 objects as of 27-May-2018
HD Live streaming from Space Station
objects crossing your sky now

NOAA 16 DEB

Track NOAA 16 DEB now!
10-day predictions


NORAD ID: 41145
Int'l Code: 2000-055CC
Perigee: 673.1 km
Apogee: 847.3 km
Inclination: 99.0 °
Period: 99.9 minutes
Semi major axis: 7131 km
RCS: Unknown
Launch date: September 21, 2000
Source: United States (US)
Launch site: AIR FORCE WESTERN TEST RANGE (AFWTR)

Note: This is SATELLITE DEBRIS
aabbcc
Your satellite tracking list
Your tracking list is empty




NASA's NSSDC Master Catalog

Two Line Element Set (TLE):
1 41145U 00055CC  18146.60664066  .00001801  00000-0  52118-3 0  9999
2 41145  99.0065 274.0539 0122138 312.7686  46.3277 14.41651698130813
Source of the keplerian elements: AFSPC